SAS85 EDDH-EKCH

Flight info

Callsign SAS85
Flight time 0h 34m
Altitude 23000
Route LUGEG3G LUGEG P605 GESKA/N0387F220 Z711 MONAK
Aircraft B738/M-SDE2E3FGHIRWXY/LB1

Departure

Time 2026-04-25 12:56
Airport Hamburg Helmut Schmidt Airport (EDDH)

Arrival

Time 2026-04-25 13:31
Airport Copenhagen Kastrup Airport (EKCH)
Time Latitude Longitude Altitude Speed Heading
2026-04-25 12:40 53.62803 10.00231 50 ft 0 kts 63°
2026-04-25 12:48 53.62802 10.00230 48 ft 1 kts 63°
2026-04-25 12:48 53.62795 10.00208 48 ft 3 kts 62°
2026-04-25 12:49 53.62788 10.00183 50 ft 3 kts 58°
2026-04-25 12:49 53.62776 10.00160 50 ft 3 kts 18°
2026-04-25 12:49 53.62759 10.00160 50 ft 3 kts 337°
2026-04-25 12:49 53.62747 10.00170 50 ft 1 kts 333°
2026-04-25 12:50 53.62743 10.00172 50 ft 0 kts 333°
2026-04-25 12:53 53.62745 10.00171 50 ft 1 kts 333°
2026-04-25 12:53 53.62773 10.00147 49 ft 7 kts 332°
2026-04-25 12:53 53.62822 10.00103 50 ft 8 kts 332°
2026-04-25 12:54 53.62859 10.00038 50 ft 8 kts 283°
2026-04-25 12:54 53.62846 9.99967 51 ft 5 kts 242°
2026-04-25 12:54 53.62844 9.99960 51 ft 0 kts 242°
2026-04-25 12:54 53.62842 9.99954 51 ft 2 kts 242°
2026-04-25 12:55 53.62820 9.99885 51 ft 9 kts 242°
2026-04-25 12:55 53.62810 9.99815 50 ft 10 kts 286°
2026-04-25 12:55 53.62884 9.99724 52 ft 13 kts 333°
2026-04-25 12:55 53.63191 9.99458 50 ft 89 kts 333°
2026-04-25 12:56 53.63947 9.98801 55 ft 151 kts 333°
2026-04-25 12:56 53.64943 9.98043 679 ft 159 kts 333°
2026-04-25 12:56 53.65970 9.97334 1457 ft 162 kts 334°
2026-04-25 12:56 53.66988 9.96527 2161 ft 171 kts 327°
2026-04-25 12:57 53.68114 9.95479 2514 ft 193 kts 326°
2026-04-25 12:57 53.69372 9.94581 3118 ft 204 kts 348°
2026-04-25 12:57 53.70818 9.94621 3872 ft 208 kts 353°
2026-04-25 12:57 53.72260 9.94704 4573 ft 210 kts
2026-04-25 12:58 53.73624 9.95826 4977 ft 237 kts 34°
2026-04-25 12:58 53.74667 9.98330 5142 ft 281 kts 56°
2026-04-25 12:58 53.75532 10.01308 5815 ft 291 kts 58°
2026-04-25 12:58 53.76403 10.04423 6656 ft 294 kts 58°
2026-04-25 12:59 53.77320 10.07522 7489 ft 293 kts 50°
2026-04-25 12:59 53.78602 10.10165 8343 ft 290 kts 39°
2026-04-25 12:59 53.80007 10.12649 9178 ft 294 kts 38°
2026-04-25 12:59 53.81442 10.15149 10034 ft 299 kts 38°
2026-04-25 13:00 53.82917 10.17731 10624 ft 315 kts 38°
2026-04-25 13:00 53.83417 10.18607 10681 ft 325 kts 38°
2026-04-25 13:00 53.86178 10.23510 11300 ft 360 kts 39°
2026-04-25 13:00 53.87903 10.26642 12060 ft 366 kts 40°
2026-04-25 13:01 53.89638 10.29822 12915 ft 369 kts 40°
2026-04-25 13:01 53.91387 10.33044 13746 ft 374 kts 40°
2026-04-25 13:01 53.93159 10.36317 14531 ft 379 kts 40°
2026-04-25 13:01 53.94948 10.39629 15360 ft 383 kts 40°
2026-04-25 13:02 53.96764 10.42993 16145 ft 388 kts 40°
2026-04-25 13:02 53.98599 10.46395 16903 ft 393 kts 41°
2026-04-25 13:02 54.00461 10.49849 17642 ft 399 kts 41°
2026-04-25 13:02 54.02343 10.53348 18389 ft 403 kts 40°
2026-04-25 13:03 54.04249 10.56898 19071 ft 409 kts 40°
2026-04-25 13:03 54.06178 10.60494 19747 ft 414 kts 40°
2026-04-25 13:03 54.08133 10.64144 20410 ft 418 kts 41°
2026-04-25 13:03 54.10077 10.67781 21059 ft 422 kts 41°
2026-04-25 13:04 54.12064 10.71503 21693 ft 426 kts 41°
2026-04-25 13:04 54.14068 10.75263 22299 ft 430 kts 41°
2026-04-25 13:04 54.16078 10.79043 22894 ft 431 kts 41°
2026-04-25 13:04 54.18101 10.82852 22999 ft 433 kts 41°
2026-04-25 13:05 54.20115 10.86655 23004 ft 430 kts 41°
2026-04-25 13:05 54.22116 10.90441 23009 ft 428 kts 41°
2026-04-25 13:05 54.24115 10.94224 23021 ft 428 kts 41°
2026-04-25 13:05 54.26113 10.98006 23010 ft 429 kts 41°
2026-04-25 13:06 54.27439 11.00521 23010 ft 429 kts 41°
2026-04-25 13:06 54.29438 11.04314 23007 ft 429 kts 41°
2026-04-25 13:06 54.31433 11.08107 23006 ft 429 kts 40°
2026-04-25 13:06 54.33434 11.11916 23002 ft 429 kts 41°
2026-04-25 13:07 54.35432 11.15727 23001 ft 430 kts 41°
2026-04-25 13:07 54.37433 11.19546 23002 ft 430 kts 41°
2026-04-25 13:07 54.39430 11.23368 22996 ft 430 kts 41°
2026-04-25 13:07 54.41403 11.27151 22980 ft 430 kts 41°
2026-04-25 13:08 54.43399 11.30985 22977 ft 430 kts 41°
2026-04-25 13:08 54.45381 11.34803 22964 ft 421 kts 41°
2026-04-25 13:08 54.47297 11.38510 22953 ft 408 kts 41°
2026-04-25 13:08 54.49166 11.42123 22848 ft 401 kts 40°
2026-04-25 13:09 54.51043 11.45742 22223 ft 404 kts 40°
2026-04-25 13:09 54.52906 11.49339 21744 ft 400 kts 40°
2026-04-25 13:09 54.54715 11.52844 21335 ft 395 kts 40°
2026-04-25 13:09 54.56533 11.56370 20922 ft 391 kts 40°
2026-04-25 13:10 54.58331 11.59861 20512 ft 386 kts 40°
2026-04-25 13:10 54.60107 11.63318 20106 ft 382 kts 40°
2026-04-25 13:10 54.61862 11.66737 19696 ft 379 kts 40°
2026-04-25 13:10 54.63606 11.70137 19289 ft 375 kts 40°
2026-04-25 13:11 54.65326 11.73497 18906 ft 372 kts 40°
2026-04-25 13:11 54.67032 11.76834 18480 ft 369 kts 40°
2026-04-25 13:11 54.68720 11.80139 18116 ft 365 kts 40°
2026-04-25 13:11 54.70393 11.83423 17736 ft 361 kts 40°
2026-04-25 13:12 54.72028 11.86634 17365 ft 358 kts 40°
2026-04-25 13:12 54.73669 11.89860 16985 ft 356 kts 40°
2026-04-25 13:12 54.75303 11.93077 16607 ft 353 kts 40°
2026-04-25 13:12 54.76396 11.95231 16351 ft 352 kts 40°
2026-04-25 13:13 54.78521 11.99425 15855 ft 348 kts 40°
2026-04-25 13:13 54.80114 12.02572 15478 ft 346 kts 40°
2026-04-25 13:13 54.81699 12.05708 15104 ft 344 kts 40°
2026-04-25 13:13 54.83267 12.08820 14736 ft 342 kts 40°
2026-04-25 13:14 54.84829 12.11922 14367 ft 340 kts 40°
2026-04-25 13:14 54.86379 12.15003 13996 ft 338 kts 40°
2026-04-25 13:14 54.87924 12.18072 13619 ft 336 kts 40°
2026-04-25 13:14 54.89510 12.21004 13250 ft 331 kts 36°
2026-04-25 13:15 54.91129 12.23767 12894 ft 328 kts 35°
2026-04-25 13:15 54.92760 12.26513 12541 ft 325 kts 35°
2026-04-25 13:15 54.94388 12.29243 12186 ft 323 kts 35°
2026-04-25 13:15 54.96005 12.31956 11855 ft 324 kts 35°
2026-04-25 13:16 54.97644 12.34692 11491 ft 328 kts 35°
2026-04-25 13:16 54.99309 12.37448 11168 ft 331 kts 35°
2026-04-25 13:16 55.00991 12.40207 10902 ft 332 kts 35°
2026-04-25 13:16 55.02672 12.42945 10588 ft 329 kts 35°
2026-04-25 13:17 55.04284 12.45583 10455 ft 311 kts 35°
2026-04-25 13:17 55.05809 12.48117 10305 ft 294 kts 35°
2026-04-25 13:17 55.07256 12.50540 10227 ft 284 kts 35°
2026-04-25 13:17 55.08667 12.52911 9886 ft 284 kts 35°
2026-04-25 13:18 55.10119 12.55323 9233 ft 290 kts 35°
2026-04-25 13:18 55.11595 12.57745 8620 ft 292 kts 35°
2026-04-25 13:18 55.13083 12.60164 8104 ft 291 kts 35°
2026-04-25 13:18 55.14574 12.62557 7585 ft 291 kts 35°
2026-04-25 13:19 55.16066 12.64940 7055 ft 288 kts 35°
2026-04-25 13:19 55.17519 12.67259 6539 ft 285 kts 35°
2026-04-25 13:19 55.18976 12.69583 6020 ft 283 kts 35°
2026-04-25 13:19 55.19958 12.71144 5678 ft 281 kts 35°
2026-04-25 13:20 55.21841 12.74143 5179 ft 273 kts 35°
2026-04-25 13:20 55.23248 12.76390 4805 ft 275 kts 35°
2026-04-25 13:20 55.24662 12.78649 4438 ft 277 kts 35°
2026-04-25 13:20 55.26086 12.80929 4084 ft 277 kts 35°
2026-04-25 13:21 55.27512 12.83210 4009 ft 278 kts 35°
2026-04-25 13:21 55.28945 12.85488 3992 ft 279 kts 35°
2026-04-25 13:21 55.30372 12.87777 4002 ft 276 kts 35°
2026-04-25 13:21 55.31777 12.90039 3981 ft 269 kts 35°
2026-04-25 13:22 55.33116 12.92212 3975 ft 255 kts 35°
2026-04-25 13:22 55.34374 12.94285 3971 ft 242 kts 35°
2026-04-25 13:22 55.35579 12.96302 3984 ft 237 kts 35°
2026-04-25 13:23 55.38009 13.00346 3995 ft 244 kts 35°
2026-04-25 13:23 55.39238 13.02373 3997 ft 246 kts 34°
2026-04-25 13:23 55.40649 13.03980 3982 ft 231 kts
2026-04-25 13:23 55.42148 13.04054 3990 ft 212 kts 339°
2026-04-25 13:24 55.43550 13.03293 3985 ft 210 kts 335°
2026-04-25 13:24 55.44938 13.02498 3988 ft 210 kts 335°
2026-04-25 13:24 55.46323 13.01698 3988 ft 210 kts 335°
2026-04-25 13:24 55.47708 13.00912 3985 ft 208 kts 334°
2026-04-25 13:25 55.48911 12.99655 3974 ft 197 kts 307°
2026-04-25 13:25 55.49728 12.97809 3991 ft 183 kts 305°
2026-04-25 13:25 55.50480 12.96072 3829 ft 175 kts 302°
2026-04-25 13:25 55.51168 12.94320 3614 ft 171 kts 301°
2026-04-25 13:26 55.51816 12.92597 3402 ft 165 kts 300°
2026-04-25 13:26 55.52425 12.90950 3187 ft 160 kts 300°
2026-04-25 13:26 55.53023 12.89330 2976 ft 155 kts 300°
2026-04-25 13:26 55.53602 12.87759 2765 ft 151 kts 300°
2026-04-25 13:27 55.54176 12.86201 2571 ft 152 kts 300°
2026-04-25 13:27 55.54760 12.84616 2378 ft 154 kts 300°
2026-04-25 13:27 55.55337 12.83051 2181 ft 150 kts 300°
2026-04-25 13:27 55.55896 12.81537 1977 ft 144 kts 300°
2026-04-25 13:28 55.56434 12.80078 1782 ft 140 kts 300°
2026-04-25 13:28 55.56782 12.79134 1655 ft 136 kts 300°
2026-04-25 13:28 55.57476 12.77254 1422 ft 138 kts 300°
2026-04-25 13:28 55.57997 12.75845 1262 ft 133 kts 300°
2026-04-25 13:29 55.58502 12.74480 1071 ft 132 kts 300°
2026-04-25 13:29 55.59007 12.73110 945 ft 133 kts 299°
2026-04-25 13:29 55.59525 12.71728 799 ft 136 kts 301°
2026-04-25 13:30 55.60536 12.68989 369 ft 130 kts 301°
2026-04-25 13:30 55.61030 12.67652 192 ft 131 kts 301°
2026-04-25 13:30 55.61547 12.66259 34 ft 136 kts 301°
2026-04-25 13:31 55.62208 12.64495 15 ft 25 kts 321°
2026-04-25 13:31 55.62335 12.64427 16 ft 14 kts
2026-04-25 13:31 55.62351 12.64433 16 ft 0 kts 11°
2026-04-25 13:32 55.62371 12.64440 16 ft 7 kts 11°
2026-04-25 13:33 55.62437 12.64407 16 ft 12 kts 314°
2026-04-25 13:33 55.62489 12.64291 18 ft 12 kts 304°
2026-04-25 13:33 55.62548 12.64208 16 ft 12 kts 11°
2026-04-25 13:33 55.62586 12.64269 16 ft 12 kts 62°
2026-04-25 13:34 55.62616 12.64389 16 ft 4 kts 65°
2026-04-25 13:34 55.62623 12.64418 18 ft 0 kts 66°
2026-04-25 13:34 55.62623 12.64419 16 ft 0 kts 66°